When you browse on this site, cookies collect data to enhance your experience and personalize the content and advertising you see.
Visit our Privacy Policy to learn more. By continuing to use the site, you agree to this use of cookies and data.
  • Em Portugal
  • Lista de países
  • Para 7 dias
  • Temperatura da água
  • Mapa do tempo
  • Widgets de tempo
  • user-avatar
    Iniciar Sessão

    Previsão horária em Kandahar

    Hoje, 16 Outubro, Quarta-feira

    Tempo Temperatura Precipitação Vento Pressão Humidade
    00:00 +14°C° 0 mm 1 m/s 677 mmHg 32%
    01:00 +12°C° 0 mm 0 m/s 676 mmHg 34%
    02:00 +11°C° 0 mm 0 m/s 676 mmHg 35%
    03:00 +11°C° 0 mm 0 m/s 676 mmHg 36%
    04:00 +11°C° 0 mm 0 m/s 676 mmHg 37%
    05:00 +13°C° 0 mm 0 m/s 677 mmHg 33%
    06:00 +15°C° 0 mm 0 m/s 678 mmHg 29%
    07:00 +17°C° 0 mm 0 m/s 679 mmHg 25%
    08:00 +19°C° 0 mm 0 m/s 679 mmHg 22%
    09:00 +23°C° 0 mm 1 m/s 679 mmHg 19%
    10:00 +25°C° 0 mm 1 m/s 679 mmHg 16%
    11:00 +26°C° 0 mm 2 m/s 679 mmHg 15%
    12:00 +28°C° 0 mm 3 m/s 679 mmHg 13%
    13:00 +29°C° 0 mm 3 m/s 679 mmHg 12%
    14:00 +29°C° 0 mm 4 m/s 678 mmHg 12%
    15:00 +29°C° 0 mm 4 m/s 678 mmHg 12%
    16:00 +28°C° 0 mm 5 m/s 678 mmHg 12%
    17:00 +25°C° 0 mm 4 m/s 677 mmHg 15%
    18:00 +21°C° 0 mm 3 m/s 677 mmHg 18%
    19:00 +19°C° 0 mm 2 m/s 677 mmHg 22%
    20:00 +17°C° 0 mm 2 m/s 677 mmHg 23%
    21:00 +16°C° 0 mm 1 m/s 677 mmHg 25%
    22:00 +15°C° 0 mm 1 m/s 676 mmHg 27%
    23:00 +15°C° 0 mm 1 m/s 676 mmHg 28%

    Amanhã, 17 Outubro, Quinta-feira

    Tempo Temperatura Precipitação Vento Pressão Humidade
    00:00 +14°C° 0 mm 1 m/s 676 mmHg 29%
    01:00 +13°C° 0 mm 0 m/s 676 mmHg 30%
    02:00 +12°C° 0 mm 0 m/s 676 mmHg 31%
    03:00 +12°C° 0 mm 0 m/s 676 mmHg 32%
    04:00 +11°C° 0 mm 0 m/s 675 mmHg 34%
    05:00 +13°C° 0 mm 0 m/s 676 mmHg 30%
    06:00 +15°C° 0 mm 0 m/s 677 mmHg 27%
    07:00 +17°C° 0 mm 0 m/s 678 mmHg 23%
    08:00 +21°C° 0 mm 1 m/s 678 mmHg 21%
    09:00 +23°C° 0 mm 1 m/s 678 mmHg 18%
    10:00 +25°C° 0 mm 1 m/s 678 mmHg 16%
    11:00 +26°C° 0 mm 3 m/s 678 mmHg 14%
    12:00 +27°C° 0 mm 4 m/s 678 mmHg 13%
    13:00 +29°C° 0 mm 5 m/s 678 mmHg 11%
    14:00 +28°C° 0 mm 5 m/s 677 mmHg 11%
    15:00 +28°C° 0 mm 5 m/s 677 mmHg 11%
    16:00 +27°C° 0 mm 5 m/s 676 mmHg 10%
    17:00 +23°C° 0 mm 4 m/s 676 mmHg 13%
    18:00 +20°C° 0 mm 3 m/s 676 mmHg 15%
    19:00 +17°C° 0 mm 2 m/s 675 mmHg 17%
    20:00 +17°C° 0 mm 2 m/s 675 mmHg 18%
    21:00 +16°C° 0 mm 2 m/s 675 mmHg 19%
    22:00 +15°C° 0 mm 2 m/s 675 mmHg 20%
    23:00 +14°C° 0 mm 1 m/s 675 mmHg 22%

    Depois de amanhã, 18 Outubro, Sexta-feira

    Tempo Temperatura Precipitação Vento Pressão Humidade
    00:00 +13°C° 0 mm 1 m/s 674 mmHg 24%
    01:00 +12°C° 0 mm 1 m/s 674 mmHg 25%
    02:00 +11°C° 0 mm 0 m/s 674 mmHg 27%
    03:00 +10°C° 0 mm 0 m/s 674 mmHg 28%
    04:00 +10°C° 0 mm 0 m/s 673 mmHg 29%
    05:00 +12°C° 0 mm 0 m/s 675 mmHg 26%
    06:00 +14°C° 0 mm 0 m/s 676 mmHg 23%
    07:00 +16°C° 0 mm 0 m/s 677 mmHg 20%
    08:00 +20°C° 0 mm 1 m/s 677 mmHg 18%
    09:00 +22°C° 0 mm 1 m/s 678 mmHg 15%
    10:00 +24°C° 0 mm 1 m/s 678 mmHg 13%
    11:00 +25°C° 0 mm 1 m/s 678 mmHg 12%
    12:00 +26°C° 0 mm 1 m/s 677 mmHg 11%
    13:00 +28°C° 0 mm 2 m/s 677 mmHg 10%
    14:00 +28°C° 0 mm 2 m/s 677 mmHg 10%
    15:00 +27°C° 0 mm 2 m/s 676 mmHg 10%
    16:00 +27°C° 0 mm 3 m/s 676 mmHg 10%
    17:00 +24°C° 0 mm 2 m/s 676 mmHg 13%
    18:00 +20°C° 0 mm 2 m/s 675 mmHg 16%
    19:00 +18°C° 0 mm 1 m/s 675 mmHg 19%
    20:00 +16°C° 0 mm 1 m/s 675 mmHg 21%
    21:00 +16°C° 0 mm 1 m/s 675 mmHg 22%
    22:00 +15°C° 0 mm 1 m/s 676 mmHg 24%
    23:00 +15°C° 0 mm 1 m/s 675 mmHg 25%

    19 Outubro, Sábado

    Tempo Temperatura Precipitação Vento Pressão Humidade
    00:00 +14°C° 0 mm 1 m/s 675 mmHg 26%
    01:00 +12°C° 0 mm 0 m/s 675 mmHg 27%
    02:00 +13°C° 0 mm 1 m/s 675 mmHg 27%
    03:00 +13°C° 0 mm 1 m/s 675 mmHg 27%
    04:00 +13°C° 0 mm 1 m/s 675 mmHg 27%
    05:00 +14°C° 0 mm 1 m/s 676 mmHg 26%
    06:00 +16°C° 0 mm 2 m/s 677 mmHg 24%
    07:00 +17°C° 0 mm 2 m/s 678 mmHg 23%
    08:00 +20°C° 0 mm 2 m/s 678 mmHg 20%
    09:00 +23°C° 0 mm 1 m/s 679 mmHg 18%
    10:00 +25°C° 0 mm 1 m/s 679 mmHg 15%
    11:00 +26°C° 0 mm 1 m/s 679 mmHg 14%
    12:00 +27°C° 0 mm 1 m/s 678 mmHg 12%
    13:00 +28°C° 0 mm 1 m/s 678 mmHg 11%
    14:00 +28°C° 0 mm 2 m/s 678 mmHg 11%
    15:00 +28°C° 0 mm 2 m/s 677 mmHg 11%
    16:00 +28°C° 0 mm 3 m/s 677 mmHg 11%
    17:00 +25°C° 0 mm 2 m/s 677 mmHg 14%
    18:00 +21°C° 0 mm 2 m/s 677 mmHg 17%
    19:00 +19°C° 0 mm 1 m/s 676 mmHg 20%
    20:00 +18°C° 0 mm 1 m/s 676 mmHg 21%
    21:00 +18°C° 0 mm 1 m/s 676 mmHg 22%
    22:00 +16°C° 0 mm 1 m/s 676 mmHg 22%
    23:00 +16°C° 0 mm 1 m/s 676 mmHg 22%

    20 Outubro, Domingo

    Tempo Temperatura Precipitação Vento Pressão Humidade
    00:00 +16°C° 0 mm 1 m/s 676 mmHg 23%
    01:00 +16°C° 0 mm 1 m/s 676 mmHg 23%
    02:00 +15°C° 0 mm 1 m/s 676 mmHg 24%
    03:00 +13°C° 0 mm 0 m/s 676 mmHg 26%
    04:00 +12°C° 0 mm 0 m/s 675 mmHg 28%
    05:00 +14°C° 0 mm 0 m/s 676 mmHg 25%
    06:00 +16°C° 0 mm 0 m/s 677 mmHg 22%
    07:00 +17°C° 0 mm 0 m/s 678 mmHg 19%
    08:00 +20°C° 0 mm 0 m/s 678 mmHg 17%
    09:00 +22°C° 0 mm 0 m/s 679 mmHg 14%
    10:00 +24°C° 0 mm 0 m/s 680 mmHg 12%
    11:00 +27°C° 0 mm 1 m/s 679 mmHg 10%
    12:00 +28°C° 0 mm 2 m/s 679 mmHg 9%
    13:00 +29°C° 0 mm 3 m/s 678 mmHg 8%
    14:00 +29°C° 0 mm 4 m/s 678 mmHg 8%
    15:00 +29°C° 0 mm 4 m/s 678 mmHg 8%
    16:00 +28°C° 0 mm 4 m/s 678 mmHg 8%
    17:00 +25°C° 0 mm 3 m/s 677 mmHg 9%
    18:00 +21°C° 0 mm 3 m/s 677 mmHg 11%
    19:00 +18°C° 0 mm 2 m/s 676 mmHg 12%
    20:00 +18°C° 0 mm 1 m/s 676 mmHg 13%
    21:00 +16°C° 0 mm 1 m/s 676 mmHg 14%
    22:00 +15°C° 0 mm 1 m/s 676 mmHg 15%
    23:00 +13°C° 0 mm 0 m/s 676 mmHg 16%

    21 Outubro, Segunda-feira

    Tempo Temperatura Precipitação Vento Pressão Humidade
    00:00 +13°C° 0 mm 0 m/s 675 mmHg 16%
    01:00 +12°C° 0 mm 0 m/s 675 mmHg 17%
    02:00 +12°C° 0 mm 0 m/s 675 mmHg 18%
    03:00 +11°C° 0 mm 0 m/s 675 mmHg 20%
    04:00 +11°C° 0 mm 0 m/s 675 mmHg 21%
    05:00 +13°C° 0 mm 0 m/s 676 mmHg 18%
    06:00 +15°C° 0 mm 0 m/s 676 mmHg 16%
    07:00 +16°C° 0 mm 0 m/s 677 mmHg 13%
    08:00 +19°C° 0 mm 0 m/s 678 mmHg 11%
    09:00 +23°C° 0 mm 1 m/s 678 mmHg 9%
    10:00 +26°C° 0 mm 1 m/s 679 mmHg 8%
    11:00 +27°C° 0 mm 1 m/s 678 mmHg 7%
    12:00 +28°C° 0 mm 2 m/s 678 mmHg 7%
    13:00 +29°C° 0 mm 3 m/s 677 mmHg 6%
    14:00 +29°C° 0 mm 3 m/s 677 mmHg 6%
    15:00 +28°C° 0 mm 3 m/s 677 mmHg 6%
    16:00 +28°C° 0 mm 3 m/s 676 mmHg 7%
    17:00 +25°C° 0 mm 3 m/s 676 mmHg 8%
    18:00 +21°C° 0 mm 2 m/s 675 mmHg 10%
    19:00 +18°C° 0 mm 2 m/s 675 mmHg 12%
    20:00 +17°C° 0 mm 2 m/s 675 mmHg 13%
    21:00 +16°C° 0 mm 1 m/s 675 mmHg 14%
    22:00 +14°C° 0 mm 1 m/s 674 mmHg 15%
    23:00 +13°C° 0 mm 0 m/s 674 mmHg 15%
    Mostrar mais